Dean Williams

Jefe de ojeadores - Ajax Cape Town
22 Feb 2028
Martes
Continuar

Personalidad

Adaptabilidad (15) Ambición (7) Controversia (11) Lealtad (12) Presión (8) Profesionalismo (15) Deportividad (5) Temperamento (1)

Perfil

Estilo de dirección Democrático
Licencia Continental C
Determinación 7
Gestión de personas 10
Motivación 8
Disciplina 7
Satisfacción laboral
100%
Fatiga
0%
Cargo Jefe de ojeadores
Salario 25.6K p/s
Contrato 14.03.2030

Rendimiento

Comportamiento Bueno
Efectividad del entrenamiento
34%
Desarrollo de jugadores
40%
Prevención de lesiones
30%
Implementación táctica
35%

Eventos recientes

Asistió a una reunión de captación ahora
Recomendó un objetivo de fichaje ahora
Recomendó un objetivo de fichaje ahora
Recomendó un objetivo de fichaje 7d atrás
Recomendó un objetivo de fichaje 7d atrás
Recomendó un objetivo de fichaje 7d atrás
Recomendó un objetivo de fichaje 7d atrás
Recomendó un objetivo de fichaje 7d atrás

Actualmente siguiendo

137
Jugador Club Estado Habilidad Confianza Observado Última observación Último voto
Simphiwe Mtsweni Bidvest Wits Activo 96 / 78 65% 1 31.01.2028 Aprobar
Keagan Mothiba Altach Negociando 113 / 117 66% 1 01.01.2028 Aprobar
Arthur Sales Free State Stars Activo 124 / 124 30% 1 / 1m 01.12.2027 -
Thabelo Tshikweta Free State Stars Activo 82 / 82 42% 1 / 1m 08.09.2027 -
Luca Martelli Forli Activo 81 / 104 40% 1 08.06.2027 -
Elia Boseggia Novara Activo 107 / 137 40% 1 08.06.2027 -
Mikhail Gaidash Spartak Kostroma Activo 104 / 117 40% 1 02.06.2027 -
Matteo Sorzi Carpi Activo 116 / 89 40% 1 02.06.2027 -
Shota Shekiladze Akhmat Grozny Activo 110 / 110 66% 1 01.06.2027 Aprobar
Luis Ingolotti Atlético Tucumán Activo 115 / 123 40% 3 30.05.2027 -
Lucas Bruera Carabobo Activo 133 / 99 40% 1 29.05.2027 -
Jacques Siwe Rubin Activo 109 / 103 40% 3 28.05.2027 -
Remy Mitchell Arouca Activo 100 / 84 40% 1 28.05.2027 -
Joaquín Enrico San Telmo Activo 102 / 96 40% 1 26.05.2027 -
Emmanuel Gómez Riga Alvarado Activo 109 / 124 40% 1 25.05.2027 -
Jerry Isaac AS Korofina Activo 87 / 94 40% 5 23.05.2027 -
Emiliano González Almagro Activo 106 / 111 40% 2 23.05.2027 -
Moisés Gallo Zulia Activo 97 / 116 40% 1 22.05.2027 -
Daniil Frolkin Fakel Activo 118 / 129 40% 3 20.05.2027 -
N'Golo Traoré Stade Malien Activo 100 / 122 40% 2 20.05.2027 -
Andrija Katić AS Trencin Activo 113 / 118 40% 3 20.05.2027 -
Robert Murić Floriana Activo 101 / 103 40% 1 20.05.2027 -
Anderson Pafos Activo 115 / 128 40% 1 20.05.2027 -
Jerome Karelse Golden Arrows Activo 95 / 89 40% 2 19.05.2027 -
Job Ochieng Real Sociedad Activo 111 / 92 40% 3 19.05.2027 -
Olaf Kobacki Sheffield Wednesday Activo 98 / 114 40% 1 19.05.2027 -
Brian Opondo Kakamega Homeboyz Activo 83 / 101 40% 1 16.05.2027 -
Humphrey Katasi AFC Leopards Activo 92 / 103 40% 1 14.05.2027 -
Brian Bwire Polokwane City Activo 89 / 105 40% 2 13.05.2027 -
Martin Trnovský Podbrezova Activo 115 / 118 40% 1 11.05.2027 -
Islam Imamov SKA Khabarovsk Activo 98 / 89 40% 1 10.05.2027 -
Timur Kraikov Sokol Activo 103 / 103 40% 1 10.05.2027 -
Younes Ebnoutalib Eintracht Frankfurt Activo 119 / 127 40% 1 10.05.2027 -
Ilja Tuseev Chelyabinsk Activo 94 / 99 40% 4 06.05.2027 -
Ekain Orobengoa Real Sociedad Activo 111 / 104 40% 3 05.05.2027 -
Lebo Mothiba Mamelodi Sundowns Activo 124 / 112 40% 1 05.05.2027 -
Evgeny Staver Rubin Activo 121 / 113 40% 3 02.05.2027 -
Facundo Vila Estudiantes Activo 97 / 126 40% 1 30.04.2027 -
Timur Akmurzin Dinamo Bryansk Activo 91 / 111 40% 2 29.04.2027 -
Esteban Glellel Quilmes Activo 110 / 99 40% 1 29.04.2027 -
Vadim Averkiev Orel Activo 92 / 69 40% 1 26.04.2027 -
Thomas Waddingham Portsmouth Activo 117 / 110 40% 1 25.04.2027 -
Sol Brynn Krasnodar Activo 131 / 122 40% 3 23.04.2027 -
Etiosa Ighodaro Kaizer Chiefs Activo 121 / 95 40% 1 23.04.2027 -
Bradley Mabunda SuperSport United Activo 116 / 105 40% 4 21.04.2027 -
Maycon Cleiton Zira Activo 116 / 127 40% 1 21.04.2027 -
Lorenzo Cordaro Pergolettese Activo 92 / 117 40% 1 14.04.2027 -
David Sangaré Ryazan Activo 89 / 112 40% 1 13.04.2027 -
Guilherme Pires Sporting CP Activo 96 / 74 40% 3 12.04.2027 -
Franco Carretero Deportivo Lara Activo 90 / 90 40% 1 11.04.2027 -
Brayan León Mamelodi Sundowns Activo 118 / 106 40% 4 09.04.2027 -
Dominik Takáč Slovan Bratislava Activo 124 / 121 40% 3 09.04.2027 -
Martin Zlomislić Qarabag Activo 117 / 137 40% 1 07.04.2027 -
François Kamano Sochi Activo 108 / 98 40% 1 07.04.2027 -
Bruno Gomes Valletta Activo 89 / 107 40% 1 07.04.2027 -
Rocco Vata Watford Activo 127 / 112 40% 1 06.04.2027 -
Slobodan Tedić Akron Activo 122 / 122 40% 2 03.04.2027 -
Gift Hlatshwayo Free State Stars Activo 111 / 124 40% 1 03.04.2027 -
Sagir Arce Paralimni Activo 92 / 120 40% 3 29.03.2027 -
Damir Céter Hamrun Spartans Activo 113 / 79 40% 1 27.03.2027 -
Vladislav Sarveli Nizhniy Novgorod Activo 102 / 115 40% 1 27.03.2027 -
Rostislav Soldatenko Torpedo Moscow Activo 102 / 94 40% 1 26.03.2027 -
Martin Sekulić Ural Activo 122 / 124 40% 2 24.03.2027 -
Malick Traoré Onze Createurs Activo 88 / 101 40% 1 24.03.2027 -
Nicolás Sumavil Platense Activo 121 / 130 40% 1 18.03.2027 -
Aaron Drinan Swindon Town Activo 116 / 97 40% 1 12.03.2027 -
Prince Ukachukwu Sumgayit Activo 91 / 79 40% 3 09.03.2027 -
Edoardo Colombo Gzira United Activo 74 / 65 40% 1 07.03.2027 -
Moussakoye Diallo Stade Malien Activo 120 / 113 40% 1 07.03.2027 -
Richard Ludha MFK Skalica Activo 103 / 114 40% 1 05.03.2027 -
Maksim Kireev KV Mechelen Activo 122 / 135 40% 1 03.03.2027 -
Massiré Gassama Binga Activo 100 / 84 40% 1 01.03.2027 -
Ruslan Bezrukov Rubin Activo 103 / 120 40% 2 24.02.2027 -
Bongani Modiba Black Aces Activo 120 / 134 40% 1 24.02.2027 -
Thabiso Monyane Kaizer Chiefs Activo 114 / 114 40% 1 17.02.2027 -
Arsen Adamov Akhmat Grozny Activo 130 / 128 40% 1 15.02.2027 -
Nichita Moțpan SKA Khabarovsk Activo 94 / 97 40% 1 07.02.2027 -
Simphiwe Selepe Orlando Pirates Activo 108 / 116 40% 1 06.02.2027 -
Olakunle Olusegun Rostov Activo 118 / 127 40% 1 04.02.2027 -
Anderson Arroyo Rubin Activo 122 / 111 40% 1 03.02.2027 -
Simon Ramabu Polokwane City Activo 115 / 99 40% 1 02.02.2027 -
Thalente Mbatha Orlando Pirates Activo 109 / 128 40% 1 01.02.2027 -
Ilja Berkovskiy Torpedo Moscow Activo 98 / 104 40% 1 26.12.2026 -
Yago Santiago Racing Santander Activo 112 / 136 40% 1 26.12.2026 -
Aidomo Emakhu Oxford United Activo 106 / 138 40% 1 25.12.2026 -
Sonny Perkins Leyton Orient Activo 104 / 89 40% 2 23.12.2026 -
Femi Seriki Sheffield United Activo 126 / 145 40% 1 23.12.2026 -
Nathan Ordaz Metalist Activo 107 / 131 40% 4 22.12.2026 -
Ronaldo Maarman University of Pretoria Activo 103 / 118 40% 1 22.12.2026 -
Tio Cipot NK Maribor Activo 130 / 142 40% 3 19.12.2026 -
Brooklyn Poggenpoel Maritzburg United Activo 117 / 99 40% 1 19.12.2026 -
Jovon Makama Norwich City Activo 121 / 127 40% 1 15.12.2026 -
Denzel Jubitana Neftchi Activo 118 / 102 40% 1 14.12.2026 -
Tenton Yenne Baltika Activo 120 / 104 40% 1 13.12.2026 -
Diamanka Senghor Mosta Activo 81 / 86 40% 1 13.12.2026 -
Evidence Makgopa Orlando Pirates Activo 111 / 124 40% 4 10.12.2026 -
Ammar Ramadan DAC Dunajska Streda Activo 113 / 144 40% 5 08.12.2026 -
Nicolás Andereggen Ethnikos Achnas Activo 104 / 99 40% 1 05.12.2026 -
Selasie Bakai US Forces Armees Activo 71 / 60 40% 1 03.12.2026 -
Giancarlo Mosta Activo 90 / 98 40% 1 03.12.2026 -
Mykola Kukharevych Slovan Bratislava Activo 108 / 124 40% 1 02.12.2026 -
Macula Birkirkara Activo 90 / 94 40% 1 01.12.2026 -
Yeangel Montero Naxxar Lions Activo 113 / 89 40% 4 30.11.2026 -
Luís Mota Zabbar St. Patrick Activo 75 / 103 40% 2 29.11.2026 -
Bojan Radulović Huddersfield Town Activo 108 / 125 40% 2 28.11.2026 -
Williams Manyama SuperSport United Activo 125 / 115 40% 1 28.11.2026 -
Lewis McCann Fleetwood Town Activo 100 / 117 40% 1 26.11.2026 -
Ayom Majok Zabbar St. Patrick Activo 82 / 108 40% 1 20.11.2026 -
Patrick Otieno KCB Activo 70 / 74 40% 1 20.11.2026 -
Fernando Costanza Krylya Sovetov Activo 125 / 121 40% 1 20.11.2026 -
Alassana Jatta Notts County Activo 111 / 109 40% 2 18.11.2026 -
Promise Omochere Bristol Rovers Activo 107 / 97 40% 3 17.11.2026 -
Themba Ngcobo SuperSport United Activo 124 / 124 40% 2 16.11.2026 -
Eli King Gillingham Activo 118 / 106 40% 2 16.11.2026 -
Bongani Mothiba SuperSport United Activo 79 / 95 40% 1 14.11.2026 -
Jonás Luna Santa Clara Activo 113 / 121 40% 4 12.11.2026 -
Lee Bonis Chesterfield Activo 95 / 77 40% 1 08.11.2026 -
Jaze Kabia Grimsby Town Activo 87 / 107 40% 2 07.11.2026 -
Reda Khadra Qarabag Activo 138 / 107 40% 1 07.11.2026 -
Axel Pérez NK Domzale Activo 109 / 100 40% 1 05.11.2026 -
Suleiman Camara Slovan Bratislava Activo 120 / 134 40% 1 03.11.2026 -
Alvin Mangeni Kenya Police Activo 84 / 86 40% 2 01.11.2026 -
Paul Mbong Floriana Activo 91 / 110 40% 2 30.10.2026 -
Tosin Olawale El-Kanemi Warriors Activo 99 / 99 40% 1 30.10.2026 -
Nyamawi Beja Bandari Activo 82 / 95 40% 1 29.10.2026 -
Isaac Matondo Koper Activo 98 / 93 40% 1 27.10.2026 -
Alfred Emoni Bandari Activo 73 / 79 40% 1 24.10.2026 -
Jere Vrcić Birkirkara Activo 102 / 98 40% 2 22.10.2026 -
Luca Connell Barnsley Activo 101 / 118 40% 1 21.10.2026 -
Connor Barrett Walsall Activo 109 / 97 40% 1 20.10.2026 -
Maleace Asamoah Wigan Athletic Activo 86 / 91 40% 1 16.10.2026 -
Samuel Ayanrinde Kenya Police Activo 76 / 81 40% 1 13.10.2026 -
Benson Omalla Nairobi United Activo 83 / 87 40% 1 10.10.2026 -
Romano Schmid Frosinone Activo 131 / 129 40% 1 10.10.2026 -
Fletcher Holman Swindon Town Activo 102 / 107 40% 1 07.10.2026 -
Given Msimango Kaizer Chiefs Activo 93 / 118 62% 1 10.08.2026 Aprobar
Lukas Nmecha Leeds United Activo 137 / 147 40% 1 01.08.2026 -